Tracking 29511 objects as of 17-Sep-2024
HD Live streaming from Space Station
objects crossing your sky now

FENGYUN 1C DEB

Track FENGYUN 1C DEB now!
10-day predictions


NORAD ID: 32454
Int'l Code: 1999-025DBS
Perigee: 629.0 km
Apogee: 949.3 km
Inclination: 98.4 °
Period: 100.5 minutes
Semi major axis: 7160 km
RCS: 0.009 m2 (small)
Launch date: May 10, 1999
Source: People's Republic of China (PRC)
Launch site: Taiyaun Space Center, China (TSC)

Note: This is SATELLITE DEBRIS
Your satellite tracking list
Your tracking list is empty




NASA's NSSDC Master Catalog

Two Line Element Set (TLE):
1 32454U 99025DBS 24260.88632867  .00035492  00000-0  98046-2 0  9997
2 32454  98.4107 274.1961 0223656 353.1632   6.6515 14.32900294 25932
Source of the keplerian elements: AFSPC